CAPE
0 0 3 51 50 30 33 4 3 574 97 29 102 18 107 108 32 181 115 105 118 61 71 102 120 142 212 413 523 597 1772 1325 1365 1397 1047 1701 1554 1510 1316 2029 1688 1800 1774 1880
0 0 0 84 50 16 107 113 52 109 167 14 78 38 110 79 8 39 224 122 128 117 99 134 135 161 149 329 588 836 1519 1850 1918 1425 1944 1991 1463 1802 1727 2003 1690 1764 1671 1954
0 0 0 36 43 0 31 219 12 11 210 10 49 74 149 124 59 55 257 254 117 136 158 142 165 132 250 455 508 803 1135 1837 1592 1458 2128 1704 2050 2209 1598 2018 1771 1758 1691 1758
0 0 0 83 32 0 22 124 27 32 402 546 92 82 173 58 50 78 354 125 112 102 93 166 193 224 235 753 853 1084 1152 1684 1673 1215 2304 1235 1897 1806 1383 1365 1772 2257 1674 1562
0 0 0 0 0 17 2 1 370 242 247 282 196 93 145 101 35 4 413 192 77 163 174 252 233 308 248 647 900 1153 1387 1559 1605 1546 2000 1338 1329 1884 1302 1391 1977 1536 2064 1658
0 0 0 0 0 20 39 0 22 338 385 141 105 87 125 42 26 35 76 160 244 197 234 477 203 437 378 611 1213 1125 1671 1906 1579 1690 1570 1368 1194 1254 1998 1163 1806 1542 1893 1614
0 0 0 0 0 5 53 5 64 100 149 165 59 75 36 88 14 70 124 399 310 111 213 225 313 296 798 911 1258 1564 1858 1973 1757 1649 1368 1124 1324 1377 1346 1736 769 652 887 1294
0 0 0 0 1 0 12 42 99 119 86 101 146 130 58 39 32 53 235 493 771 540 164 251 572 449 862 1122 916 1272 1843 2158 1762 1552 1520 1375 1229 950 801 1222 2211 936 884 852
5 0 0 0 0 1 0 77 79 20 60 23 53 314 311 129 113 302 507 512 724 747 370 422 516 879 1309 1109 1349 1439 1949 2232 1793 1473 1566 1645 1527 1424 1481 1387 1473 1377 1790 1855
46 39 5 0 0 0 0 20 113 85 101 68 76 133 150 456 526 572 616 930 979 872 941 578 1064 1036 720 454 1545 904 812 1402 1684 1575 1438 1579 1477 1275 1012 1073 1234 1390 976 1395
40 38 24 0 0 0 0 0 34 93 88 89 158 265 336 747 916 983 1055 1125 994 1071 1217 1545 1300 1235 1446 1203 1054 824 1346 1387 1534 1582 1540 1907 1391 1623 1426 965 836 1057 1145 1466
14 43 19 5 0 0 0 0 0 26 105 69 31 336 458 844 1087 1264 1266 1283 1511 1681 1604 1380 1208 1501 1153 1047 219 418 207 306 203 960 1253 1418 961 1163 1397 914 907 916 1273 1352
62 31 66 42 20 0 0 0 0 4 19 78 93 437 644 1216 1002 1092 990 781 970 891 1112 1221 1243 1427 1606 988 608 548 325 211 188 222 1176 898 1072 1158 1414 1544 1059 1013 1029 1427
14 55 40 125 49 15 0 0 0 4 30 7 47 739 966 1179 1129 988 817 555 398 366 361 500 716 1037 1177 1228 1117 785 530 374 560 694 233 296 265 341 589 682 790 1098 1691 1345
47 104 114 55 59 54 9 0 2 4 33 81 76 263 827 1164 1104 1029 749 509 347 398 320 133 173 267 547 1078 1149 936 663 650 823 655 672 573 209 244 335 365 843 988 1758 1285
210 223 156 128 15 39 47 42 20 2 0 14 40 295 33 1002 1299 1082 884 815 748 496 429 230 17 21 9 132 1217 1549 1348 825 976 1013 895 670 664 841 776 713 672 761 903 1076
124 155 251 101 92 63 103 116 72 55 68 65 212 468 341 852 1145 1198 931 718 643 513 289 143 62 19 7 5 6 127 512 1105 1022 745 530 573 436 364 424 392 308 194 294 835
89 44 21 278 176 125 108 61 90 167 163 141 331 374 505 660 874 989 904 873 697 357 236 159 19 5 5 3 4 4 2 14 77 30 11 8 30 50 44 104 13 1 57 350
37 59 381 135 5 80 119 83 100 120 189 163 334 351 529 697 924 867 814 782 585 325 247 114 6 4 4 2 0 0 3 4 0 2 1 0 0 2 2 4 94 79 333 293
26 96 318 286 33 326 5 1 1 6 318 131 190 439 655 687 896 884 578 510 451 258 55 5 6 1 0 0 0 0 0 0 0 0 0 0 0 0 0 3 2 5 3 82
171 207 197 256 88 28 51 0 1 53 190 164 246 310 547 813 842 576 548 334 220 123 29 1 1 0 0 0 0 0 0 0 0 0 0 0 0 0 0 0 0 0 1 14
373 358 295 280 131 187 3 0 46 235 99 152 300 425 528 401 378 439 391 218 178 68 7 10 8 0 0 0 0 0 0 0 0 0 0 0 0 0 0 0 0 0 0 0
342 228 466 296 570 237 111 304 157 111 103 73 154 253 385 294 349 386 349 170 91 40 5 2 0 0 0 0 0 0 0 0 0 0 0 0 0 0 0 0 0 0 0 0
103 391 229 249 174 28 9 7 13 17 6 0 40 134 209 221 311 390 322 212 114 42 4 2 1 0 0 0 0 0 0 0 0 0 0 0 0 0 0 0 0 0 0 0
57 294 90 205 237 129 67 25 12 0 0 0 0 51 147 234 274 381 358 301 206 98 25 3 0 0 0 0 0 0 0 0 0 0 0 0 0 0 0 0 0 0 0 0
50 20 19 59 83 142 36 60 6 0 0 0 0 0 107 257 330 332 378 357 279 192 48 8 3 1 0 0 0 0 0 0 0 0 0 0 0 0 0 0 0 0 0 0
CIN
-0 -0 -0 -5 -1 -110 -102 -90 -148 -0 -25 -51 -3 -39 -6 -55 -109 -59 -0 -1 -0 -0 -0 -0 -0 -0 -0 -0 -0 -0 -4 -0 -0 -0 -0 -16 -27 -14 -8 -29 -2 -0 -0 -0
-0 -0 -0 -2 -0 -1 -0 -11 -2 -1 -42 -72 -23 -15 -3 -1 -92 -108 -39 -0 -0 -0 -1 -0 -0 -0 -0 -0 -1 -0 -0 -0 -0 -1 -32 -11 -28 -17 -21 -33 -0 -0 -0 -0
-0 -0 -0 -1 -0 -0 -1 -17 -124 -2 -4 -35 -5 -0 -0 -0 -41 -67 -45 -14 -4 -1 -0 -0 -0 -0 -0 -0 -0 -0 -0 -0 -0 -10 -8 -0 -2 -13 -0 -5 -1 -0 -0 -0
-0 -0 -0 -0 -7 -0 -0 -44 -106 -7 -0 -0 -16 -0 -0 -8 -14 -32 -3 -15 -2 -0 -8 -0 -0 -0 -0 -0 -0 -0 -0 -0 -0 -0 -5 -5 -5 -3 -2 -51 -27 -2 -0 -0
-0 -0 -0 -0 -0 -2 -0 -0 -104 -144 -0 -0 -0 -1 -1 -2 -40 -17 -2 -2 -0 -9 -3 -52 -35 -31 -0 -0 -0 -0 -0 -0 -0 -0 -2 -2 -0 -6 -1 -42 -9 -35 -0 -0
-0 -0 -0 -0 -0 -1 -1 -0 -0 -11 -0 -30 -4 -1 -0 -20 -44 -52 -96 -7 -11 -2 -17 -14 -1 -0 -2 -0 -1 -0 -0 -0 -0 -0 -0 -0 -0 -0 -7 -14 -6 -5 -9 -0
-0 -0 -0 -0 -0 -0 -0 -3 -0 -0 -34 -0 -11 -0 -6 -3 -92 -85 -90 -65 -3 -63 -4 -7 -2 -20 -7 -5 -2 -2 -0 -0 -0 -0 -0 -0 -0 -0 -1 -1 -4 -63 -73 -52
-0 -0 -0 -0 -0 -0 -5 -9 -0 -0 -0 -0 -7 -1 -9 -26 -69 -71 -28 -13 -0 -1 -43 -5 -3 -35 -0 -4 -0 -1 -0 -0 -0 -0 -0 -0 -0 -0 -0 -0 -4 -0 -115 -2
-0 -0 -0 -0 -0 -0 -0 -0 -1 -17 -0 -11 -8 -17 -14 -43 -37 -42 -34 -3 -3 -1 -31 -5 -2 -4 -33 -6 -1 -1 -1 -1 -0 -0 -0 -0 -0 -0 -3 -3 -0 -1 -0 -49
-0 -0 -0 -0 -0 -0 -0 -0 -0 -0 -0 -15 -12 -0 -0 -54 -35 -29 -18 -2 -1 -12 -0 -7 -24 -21 -82 -124 -29 -68 -37 -16 -3 -0 -0 -0 -0 -0 -0 -0 -0 -0 -44 -23
-0 -0 -0 -0 -0 -0 -0 -0 -0 -0 -2 -1 -4 -0 -0 -25 -29 -45 -0 -0 -0 -0 -0 -1 -14 -2 -0 -11 -33 -106 -21 -26 -7 -0 -3 -3 -0 -1 -0 -0 -0 -0 -0 -1
-0 -0 -1 -0 -0 -0 -0 -0 -0 -0 -0 -1 -5 -36 -4 -20 -31 -56 -102 -96 -54 -29 -3 -2 -0 -20 -38 -39 -150 -97 -183 -112 -84 -3 -6 -0 -3 -0 -6 -0 -0 -0 -0 -0
-3 -1 -3 -5 -0 -0 -0 -0 -0 -0 -0 -0 -0 -6 -13 -12 -78 -109 -154 -171 -102 -123 -64 -26 -4 -1 -0 -41 -57 -38 -90 -155 -85 -20 -1 -8 -0 -4 -7 -5 -0 -0 -0 -0
-53 -0 -1 -0 -4 -0 -0 -0 -0 -0 -0 -0 -3 -16 -15 -16 -46 -95 -175 -222 -239 -213 -187 -121 -44 -11 -3 -2 -6 -30 -34 -35 -22 -0 -45 -38 -55 -29 -19 -18 -24 -19 -1 -0
-1 -0 -0 -1 -9 -0 -0 -0 -0 -0 -1 -0 -2 -1 -0 -23 -64 -67 -171 -215 -242 -194 -203 -280 -206 -156 -78 -17 -5 -11 -2 -14 -0 -1 -0 -1 -66 -2 -8 -19 -11 -17 -3 -0
-0 -0 -11 -0 -30 -1 -2 -1 -0 -0 -0 -4 -11 -8 -2 -8 -61 -97 -136 -141 -119 -138 -167 -214 -405 -371 -385 -202 -2 -0 -0 -6 -0 -0 -0 -0 -0 -0 -0 -0 -5 -11 -6 -3
-15 -41 -0 -10 -0 -0 -0 -1 -0 -0 -1 -0 -1 -1 -7 -8 -28 -53 -120 -146 -146 -163 -233 -280 -342 -440 -0 -0 -202 -190 -23 -0 -0 -3 -5 -0 -2 -14 -17 -8 -7 -33 -10 -1
-9 -77 -60 -2 -54 -0 -12 -30 -3 -2 -0 -4 -1 -8 -6 -27 -51 -58 -63 -69 -122 -212 -254 -289 -263 -0 -0 -0 -0 -0 -0 -39 -31 -74 -86 -82 -52 -90 -54 -4 -14 -15 -62 -1
-61 -35 -11 -15 -28 -4 -4 -33 -7 -1 -0 -15 -3 -23 -30 -40 -55 -62 -41 -39 -83 -180 -200 -276 -25 -0 -0 -0 -0 -0 -0 -0 -0 -0 -0 -0 -0 -0 -0 -2 -12 -20 -5 -3
-4 -8 -0 -0 -1 -0 -126 -1 -39 -44 -0 -13 -19 -20 -17 -45 -7 -5 -51 -55 -72 -118 -213 -0 -0 -0 -0 -0 -0 -0 -0 -0 -0 -0 -0 -0 -0 -0 -0 -0 -0 -0 -0 -16
-0 -2 -0 -0 -0 -11 -1 -0 -23 -11 -18 -14 -9 -1 -2 -1 -13 -6 -37 -72 -114 -174 -236 -0 -0 -0 -0 -0 -0 -0 -0 -0 -0 -0 -0 -0 -0 -0 -0 -0 -0 -0 -0 -0
-0 -0 -0 -0 -40 -0 -5 -16 -4 -17 -50 -14 -10 -1 -0 -23 -47 -11 -41 -89 -105 -164 -0 -0 -0 -0 -0 -0 -0 -0 -0 -0 -0 -0 -0 -0 -0 -0 -0 -0 -0 -0 -0 -0
-0 -0 -0 -0 -0 -48 -64 -38 -45 -29 -43 -44 -16 -0 -0 -14 -12 -8 -20 -70 -99 -151 -0 -0 -0 -0 -0 -0 -0 -0 -0 -0 -0 -0 -0 -0 -0 -0 -0 -0 -0 -0 -0 -0
-41 -11 -13 -6 -19 -84 -97 -104 -105 -80 -115 -0 -35 -0 -0 -3 -5 -6 -12 -32 -69 -119 -21 -0 -0 -0 -0 -0 -0 -0 -0 -0 -0 -0 -0 -0 -0 -0 -0 -0 -0 -0 -0 -0
-36 -22 -62 -8 -16 -44 -75 -92 -128 -0 -0 -0 -0 -35 -0 -0 -0 -0 -4 -9 -25 -61 -99 -0 -0 -0 -0 -0 -0 -0 -0 -0 -0 -0 -0 -0 -0 -0 -0 -0 -0 -0 -0 -0
-55 -87 -84 -34 -54 -51 -105 -102 -178 -0 -0 -0 -0 -0 -22 -0 -0 -0 -0 -0 -0 -17 -53 -57 -0 -0 -0 -0 -0 -0 -0 -0 -0 -0 -0 -0 -0 -0 -0 -0 -0 -0 -0 -0
Wind_Speed
17 14 16 19 20 17 3 3 5 15 14 11 10 7 3 8 6 11 15 15 17 17 19 16 15 16 14 15 13 11 5 10 4 5 6 4 4 3 4 5 7 3 6 3
13 17 18 19 14 9 20 19 9 20 23 8 13 5 4 8 10 11 11 19 19 21 20 16 16 16 16 14 14 12 11 11 9 7 2 1 2 1 1 5 6 6 5 4
15 15 18 14 10 14 15 11 2 7 14 13 14 5 6 5 12 19 20 18 17 17 23 20 17 17 17 16 13 12 10 11 9 3 4 1 2 2 4 3 6 6 5 6
16 16 18 7 14 15 13 19 10 19 18 9 6 5 12 8 7 10 20 16 18 18 11 20 19 16 16 17 14 14 11 11 8 6 8 4 2 2 5 4 1 7 5 6
16 17 13 15 17 15 6 17 29 23 12 19 15 7 11 15 5 7 19 10 18 15 13 9 21 17 16 16 15 14 12 10 7 8 6 7 7 3 2 4 5 2 6 6
20 8 12 16 15 13 5 10 8 12 10 2 14 12 13 13 10 5 16 14 16 23 25 26 19 18 14 16 12 14 13 11 9 8 7 3 1 4 4 2 3 4 7 8
16 9 13 15 17 8 13 15 6 7 3 6 14 9 7 20 21 16 19 22 18 10 18 15 15 9 11 12 13 13 14 12 11 10 8 7 6 4 4 5 5 4 4 6
14 15 18 10 18 12 16 19 7 8 6 8 17 6 14 24 24 23 25 22 22 23 14 12 19 12 13 14 16 15 15 12 12 11 7 6 6 7 5 4 4 4 5 5
15 17 18 14 13 16 14 18 14 7 5 7 8 10 5 16 18 14 16 23 19 18 24 22 17 22 5 7 10 15 11 10 12 11 9 7 5 7 3 1 4 5 5 7
11 12 18 15 13 18 17 15 17 11 14 8 5 5 8 17 17 16 16 15 23 21 18 15 15 15 12 9 6 10 9 2 5 9 10 9 9 7 6 5 6 7 4 9
9 11 14 13 16 18 14 12 14 17 14 12 7 5 4 13 18 13 9 13 17 20 18 11 9 13 16 14 15 8 10 7 1 6 7 6 9 6 8 6 6 7 7 5
16 10 14 18 15 18 16 17 16 13 18 14 9 3 12 12 11 14 9 6 6 12 7 10 9 13 16 14 12 10 8 10 2 2 4 4 8 9 3 6 6 7 5 6
7 12 13 9 16 13 14 14 20 16 16 16 14 8 12 10 10 13 13 8 7 8 7 7 6 5 14 14 15 13 11 11 9 6 5 7 5 5 6 5 6 8 8 6
9 14 16 9 4 17 19 20 21 19 15 16 13 20 16 15 14 13 13 12 9 6 7 6 4 2 7 10 10 10 10 9 9 7 5 4 3 2 4 2 6 7 9 9
8 16 17 5 15 22 20 21 9 15 16 12 3 6 16 16 15 13 14 10 11 11 10 8 5 4 0 3 10 12 13 10 10 10 10 8 4 4 6 5 5 5 6 7
11 7 14 12 10 10 13 16 22 18 17 19 2 9 4 15 15 13 13 13 12 10 11 11 7 6 4 1 3 9 12 13 10 9 9 8 8 7 8 8 4 4 3 2
11 7 7 16 9 10 9 9 9 11 7 7 7 15 11 11 11 12 11 8 9 8 9 9 8 6 5 5 4 6 4 7 9 5 4 6 7 5 4 5 3 6 2 3
10 5 16 3 12 13 10 12 8 7 9 6 3 8 5 9 10 9 10 9 9 9 9 9 9 8 7 7 7 7 8 6 8 8 8 7 8 5 2 2 2 1 2 1
9 6 7 6 1 8 7 3 5 2 14 6 7 3 9 9 11 8 5 9 10 10 7 9 9 9 9 9 8 8 9 10 9 7 7 6 5 5 4 1 3 4 5 4
3 4 6 10 9 5 4 6 3 3 6 6 5 3 7 7 9 11 8 10 11 13 11 11 13 11 11 8 7 9 8 8 8 8 7 7 6 5 4 4 3 2 2 2
8 8 9 7 5 5 13 4 1 9 6 4 3 6 5 4 6 9 10 11 10 12 14 14 12 11 11 9 9 9 8 8 6 6 5 5 5 5 4 3 3 4 4 3
3 5 5 4 6 5 3 5 4 7 5 4 1 4 6 6 7 10 11 11 11 13 12 11 11 12 12 10 10 9 8 7 5 4 6 3 4 2 4 3 3 3 2 1
5 5 4 5 7 6 6 9 5 5 6 4 3 6 4 5 8 10 11 11 11 12 10 11 12 11 8 6 8 9 8 6 6 5 4 4 2 3 2 3 3 3 1 5
7 1 5 2 8 3 5 5 4 4 5 4 4 2 5 6 9 10 11 11 11 10 11 11 11 11 10 9 7 5 7 8 6 4 3 3 3 2 3 4 3 4 4 5
3 9 7 6 4 3 5 5 5 5 1 2 3 3 1 5 6 9 9 10 11 11 10 10 10 9 9 8 9 11 9 7 6 5 5 4 4 6 5 5 9 8 9 7
7 6 7 3 3 7 2 10 5 5 4 2 3 3 3 1 4 5 8 8 9 10 10 9 9 9 10 9 8 6 6 5 5 6 6 6 5 5 6 6 6 12 11 7
Wind_Direction
202 208 217 209 221 127 301 92 313 162 140 106 112 140 192 229 256 274 176 175 168 168 152 162 162 148 149 156 160 157 134 128 143 193 193 148 240 150 162 91 116 172 142 166
186 220 228 245 231 222 173 151 222 215 154 121 152 141 176 179 236 254 260 194 173 170 153 166 164 158 159 162 164 168 159 153 186 193 8 337 77 190 86 118 152 203 179 162
214 213 233 218 238 246 230 190 151 278 127 115 134 134 179 117 200 257 264 242 166 177 162 171 175 167 160 160 172 174 182 157 208 210 151 152 21 291 163 169 177 179 187 189
236 240 203 194 243 239 260 150 137 237 149 139 201 162 195 163 159 275 235 238 170 177 214 165 170 181 173 158 173 167 184 162 199 213 137 198 150 213 247 304 157 153 198 191
216 240 214 208 226 233 69 279 149 199 132 125 192 209 141 159 169 246 246 199 206 190 179 270 173 186 177 160 169 165 176 179 196 187 269 171 215 160 284 33 163 342 164 199
250 228 207 229 222 226 228 254 252 128 129 173 183 223 162 169 164 211 257 222 231 176 207 196 183 169 185 160 161 161 165 176 186 186 207 221 280 284 31 349 243 224 175 187
233 210 220 242 214 179 226 233 217 221 91 312 136 227 136 141 152 192 222 240 216 191 206 222 170 153 169 154 163 155 163 176 180 186 195 209 203 247 226 243 253 315 126 255
206 196 219 206 233 189 216 240 207 223 233 139 161 209 144 158 171 175 193 215 203 180 226 206 166 164 191 176 167 165 162 174 178 183 197 214 198 218 228 204 292 264 335 187
196 241 170 194 232 235 197 238 239 265 275 154 285 94 100 168 178 191 208 189 206 223 177 199 203 157 94 147 178 149 161 182 177 180 179 206 217 252 3 334 281 296 234 16
311 216 169 195 219 241 264 199 238 237 233 279 142 168 140 176 183 194 190 205 187 201 209 190 152 161 152 141 134 144 184 181 165 202 180 188 207 218 239 228 242 281 332 151
280 268 166 198 203 213 211 244 223 247 238 244 174 174 147 176 157 174 170 182 185 193 197 186 148 162 147 161 166 144 142 144 313 194 266 191 196 200 205 215 225 238 286 334
240 282 247 189 219 231 223 216 221 237 232 253 239 147 318 121 142 145 138 111 71 56 146 154 165 138 150 168 173 166 137 126 129 329 269 220 242 240 206 219 211 243 233 261
287 233 248 232 180 203 240 234 227 235 255 246 257 120 133 130 138 134 140 140 136 109 107 101 140 185 154 172 184 183 184 163 160 220 254 229 223 223 269 315 285 251 220 244
296 257 248 204 269 200 209 239 216 232 218 240 224 134 157 163 144 138 130 138 133 142 137 133 177 184 186 181 179 186 188 188 169 157 134 172 170 252 285 270 273 286 274 211
254 258 272 193 258 259 184 217 232 240 260 252 323 146 146 149 143 145 143 151 157 155 157 139 141 90 86 193 187 189 189 186 184 189 198 215 181 222 239 226 233 241 276 258
314 306 279 178 239 282 176 195 207 218 236 248 33 143 99 107 118 135 144 163 170 160 139 152 130 131 121 196 237 199 186 192 194 197 194 194 196 222 220 221 208 224 238 304
286 326 237 223 189 200 211 208 221 229 219 272 298 85 125 124 130 133 137 154 141 153 137 141 139 128 96 56 62 82 81 181 179 153 128 159 138 131 119 131 88 25 230 192
240 174 281 45 339 224 64 346 24 87 69 337 63 81 94 112 113 120 132 157 135 136 135 135 123 113 94 69 54 65 53 71 112 113 108 108 99 100 111 180 126 66 326 331
209 198 300 119 263 291 148 139 302 257 129 52 58 84 94 108 109 106 123 127 149 139 134 119 115 108 104 89 71 71 74 59 56 67 94 100 115 139 138 142 217 202 220 225
274 218 215 271 178 204 358 38 350 322 190 78 75 87 123 144 204 129 134 129 121 122 115 111 115 113 105 102 99 91 77 81 72 51 26 75 74 79 65 53 35 356 326 267
195 257 266 265 264 152 262 98 299 228 69 18 327 107 129 101 63 116 122 110 114 106 117 122 115 109 108 111 107 97 99 89 96 94 99 71 64 81 75 63 26 352 348 127
209 248 259 186 288 190 34 179 320 69 95 45 67 91 98 87 118 136 131 132 127 124 129 118 119 123 132 126 111 103 99 113 91 88 86 56 57 87 81 78 41 358 96 358
273 270 318 327 36 75 58 67 86 67 77 47 27 111 114 136 134 140 140 140 143 145 131 136 129 125 118 101 131 128 138 143 124 122 86 81 6 43 169 162 177 173 216 300
196 109 249 34 158 136 116 114 122 60 61 22 20 51 148 147 150 152 153 157 151 148 155 146 145 140 141 147 137 122 138 146 156 140 150 161 215 243 280 250 185 241 197 197
10 146 228 235 121 146 181 185 160 123 108 41 31 23 93 147 165 161 164 165 160 160 166 157 163 157 151 151 147 152 162 162 168 175 184 191 192 213 175 48 21 352 52 22
198 230 217 246 134 194 334 173 185 173 183 122 101 106 61 142 156 168 164 171 173 168 172 171 174 164 158 160 156 152 161 185 196 189 192 195 211 181 216 150 139 57 64 54